Regional Weather Roundup
Issued by NWS Sioux Falls, SD

Home | Current Version | Previous Version | Text Only | Print | Product List | Glossary On
Versions: 1 2 3 4 5 6 7 8 9 10 11 12 13 14 15 16 17 18 19 20 21 22 23 24 25 26 27 28 29 30 31 32 33 34 35 36 37 38 39 40 41 42 43 44 45 46 47 48 49 50
000
ASUS43 KFSD 181810
RWRFSD

WEATHER ROUNDUP FOR SE SOUTH DAKOTA/SW MINNESOTA/NW IOWA
NATIONAL WEATHER SERVICE SIOUX FALLS SD
100 PM CDT WED OCT 18 2017

NOTE: "FAIR" INDICATES FEW OR NO CLOUDS BELOW 12,000 FEET WITH NO
SIGNIFICANT WEATHER AND OR OBSTRUCTIONS TO VISIBILITY.


SDZ038>040-050-052>070-181900-
SOUTHEAST SOUTH DAKOTA

CITY           SKY/WX    TMP DP  RH WIND       PRES   REMARKS
BROOKINGS      SUNNY     67  34  29 N17G24    29.93R
CHAMBERLAIN    SUNNY     68  33  26 N13       30.02R
6HR MIN TEMP:  44; 6HR MAX TEMP:  69;

HURON          SUNNY     66  30  26 N17G28    29.97R
6HR MIN TEMP:  39; 6HR MAX TEMP:  66;

MADISON        FAIR      66  34  30 N23G30    29.93S
MITCHELL       SUNNY     69  34  27 N18G26    29.98R
6HR MIN TEMP:  42; 6HR MAX TEMP:  69; 6HR PCP: TRACE;

SIOUX FALLS    MOSUNNY   70  40  33 N20G26    29.93R
6HR MIN TEMP:  50; 6HR MAX TEMP:  70;

WINNER         FAIR      68  34  28 N17G26    30.04R
YANKTON        SUNNY     70  40  33 N16G24    29.94R
$$

MNZ071-072-080-081-089-090-097-098-181900-
SOUTHWEST MINNESOTA

CITY           SKY/WX    TMP DP  RH WIND       PRES   REMARKS
FAIRMONT       SUNNY     68  46  45 W18       29.89S
JACKSON        MOSUNNY   64  41  42 NW14G20   29.92R
LUVERNE        SUNNY     68  34  28 NE12G21   29.93R
MARSHALL       SUNNY     68  32  26 N18G26    29.90R
6HR MIN TEMP:  55; 6HR MAX TEMP:  69;

MONTEVIDEO     SUNNY     70  36  28 N14G20    29.89S
PIPESTONE      SUNNY     70  28  21 N14G20    29.92R
REDWOOD FALLS  MOSUNNY   70  33  25 N14G26    29.88R
TRACY          SUNNY     70  34  26 N18G28    29.91R
WORTHINGTON    CLOUDY    67  41  38 N12G21    29.92R
$$

IAZ001>003-012>014-020>022-031-032-NEZ013-014-SDZ071-181900-
NORTHWEST IOWA

CITY           SKY/WX    TMP DP  RH WIND       PRES   REMARKS
CHEROKEE       SUNNY     66  48  50 W7G17     29.92R
DENISON        SUNNY     70  48  46 SW13G18   29.93R
ESTHERVILLE    SUNNY     67  45  45 W9G21     29.90R
LE MARS        SUNNY     68  43  40 NW10G17   29.93R
ORANGE CITY    SUNNY     66  46  48 N12       29.93R
SHELDON        MOSUNNY   68  43  40 NW14      29.91R
SIOUX CITY     SUNNY     71  46  40 W8        29.92R
6HR MIN TEMP:  45; 6HR MAX TEMP:  71;

SPENCER        SUNNY     66  45  46 NW9       29.91R
6HR MIN TEMP:  42; 6HR MAX TEMP:  69;

STORM LAKE     SUNNY     70  48  46 W13G18    29.92R
$$

ABBREVIATIONS USED IN REMARKS
   TC - TEMPERATURE IN CELSIUS
  WCI - WIND CHILL INDEX
   HX - HEAT INDEX
  VSB - VISIBILITY





USA.gov is the U.S. government's official web portal to all federal, state and local government web resources and services.